Theta_e
297 291 287 291 292 293 290 288 287 288 289 287 287 288 291 294 292 290 291 292 293 294 294 294 293 291 290 291 291 291 290 290 290 288 288 287 286 288 286 285 285 284 283 283
290 287 294 295 294 291 288 286 285 286 288 285 285 286 290 292 293 294 292 293 292 293 292 293 292 291 290 290 291 290 290 289 290 289 289 287 286 286 285 285 284 283 282 282
289 291 293 292 289 289 286 286 285 284 286 286 284 284 287 293 292 294 295 294 295 293 293 292 291 291 289 289 290 290 289 289 289 289 288 286 285 284 284 283 282 282 282 282
290 290 290 288 288 289 284 288 287 286 283 279 282 277 287 291 291 290 292 292 292 293 294 293 292 290 289 289 290 290 290 289 289 288 286 284 283 282 282 281 281 281 281 280
287 286 286 287 288 290 286 288 287 284 281 280 279 277 285 288 288 289 288 290 291 293 294 293 292 291 290 290 290 290 289 289 287 286 286 285 283 282 281 281 280 280 280 280
286 289 288 287 288 289 289 286 285 283 281 274 281 281 282 287 289 288 288 287 289 291 292 293 292 291 290 289 289 289 288 287 286 285 285 284 283 281 280 279 278 278 279 279
285 285 287 289 284 287 287 283 276 275 272 274 279 277 282 288 290 290 290 289 289 291 291 291 290 290 289 288 288 289 288 285 285 284 283 283 282 280 279 278 277 277 277 276
280 278 284 288 286 283 283 285 279 272 275 278 277 275 283 290 289 291 292 291 291 290 291 290 290 290 289 288 288 289 286 284 283 283 282 282 281 280 278 277 276 276 275 275
282 281 285 286 287 286 282 279 284 275 269 273 280 283 290 291 290 289 290 290 289 289 290 290 290 289 288 287 288 288 286 284 283 282 281 280 279 279 277 276 276 276 276 276
288 278 282 283 285 285 282 285 277 278 270 270 278 280 282 284 287 289 288 288 290 290 289 289 289 288 288 288 288 288 286 283 283 282 280 279 278 277 277 276 276 275 276 276
287 285 278 282 280 280 278 278 279 281 280 276 274 278 288 289 290 290 290 291 290 289 289 289 288 288 288 287 288 287 285 283 282 281 279 278 277 277 276 276 276 275 276 276
287 283 276 278 281 282 282 282 281 277 276 277 277 277 287 288 288 288 290 290 289 291 290 288 288 287 286 285 286 286 285 284 282 281 279 278 277 277 275 275 275 276 276 276
286 281 273 276 278 279 279 281 282 279 278 275 274 278 287 287 285 287 286 287 288 288 289 288 286 286 285 285 285 285 285 283 282 280 278 277 276 276 275 276 276 275 275 275
292 283 283 279 282 280 278 280 281 279 278 278 281 279 286 287 287 289 287 288 290 288 287 287 286 285 284 284 283 283 283 282 281 279 278 276 276 276 275 275 275 273 274 273
287 281 280 281 280 281 280 279 280 278 281 275 280 280 283 288 289 290 288 289 288 288 287 285 284 284 283 283 283 283 283 282 280 278 276 275 276 275 274 273 273 273 274 272
285 282 281 280 280 279 277 280 280 280 280 280 281 281 288 291 289 287 288 286 287 285 285 286 285 284 284 284 283 284 283 280 279 277 275 275 274 273 272 272 272 271 271 270
284 283 282 279 280 281 279 281 280 280 281 282 279 286 289 285 286 288 288 285 286 286 287 286 286 285 285 285 284 283 281 279 277 276 275 274 273 272 271 272 271 271 270 271
284 284 284 279 278 276 283 284 289 285 286 285 284 287 288 284 286 287 285 288 288 287 286 285 285 283 282 283 283 282 280 278 276 275 274 273 272 271 271 271 271 272 270 270
286 285 282 279 278 281 283 282 283 283 284 289 286 287 289 287 284 286 287 285 288 283 283 284 285 280 280 282 281 280 277 276 276 274 273 272 272 270 270 270 271 272 272 271
284 286 284 281 278 272 283 285 288 289 279 290 291 290 290 286 281 285 283 281 280 279 278 278 277 277 279 279 280 278 276 275 274 273 272 271 272 271 271 271 272 273 272 273
280 281 280 281 279 278 287 283 286 278 282 289 290 291 286 284 286 287 280 281 279 277 277 276 276 278 278 279 278 276 276 274 275 273 272 272 271 271 272 272 273 273 272 273
280 278 278 281 279 276 287 284 283 288 286 286 287 287 287 287 287 284 282 281 279 277 276 275 277 276 277 278 278 276 275 275 274 272 271 271 271 272 272 272 272 273 272 271
279 283 281 283 282 286 286 286 285 285 287 286 286 287 288 287 287 286 286 284 283 281 280 277 277 276 274 276 278 276 275 274 272 271 270 270 271 272 272 272 272 272 272 272
280 282 281 282 285 286 285 284 284 284 285 286 286 287 288 287 287 287 286 285 284 282 280 277 277 275 275 276 277 277 274 273 271 270 269 270 270 271 271 273 273 272 272 272
283 285 281 281 285 285 285 287 288 286 286 286 285 284 286 286 286 287 286 285 284 282 278 277 276 275 274 275 275 274 272 272 271 270 270 270 271 271 271 272 272 272 273 274
284 283 282 281 288 287 287 286 287 287 287 287 286 282 285 283 284 283 282 281 279 277 275 275 275 275 274 275 273 272 272 272 271 270 270 270 270 270 271 271 272 276 276 278
Wind_Speed
5 5 8 10 11 6 3 4 5 4 3 2 9 16 17 12 11 14 13 11 10 13 11 12 11 11 10 10 10 10 9 8 6 4 4 3 4 3 3 4 4 5 5 5
4 9 9 4 6 4 2 4 5 3 4 3 6 16 19 18 15 15 13 13 11 8 11 13 13 12 13 12 11 10 10 8 7 5 4 2 3 3 4 3 4 5 5 5
7 2 6 5 4 4 4 5 4 2 4 4 6 9 5 9 8 12 11 9 15 12 15 16 17 15 13 13 12 11 10 9 7 6 5 4 4 2 2 2 3 3 5 5
6 5 5 4 4 6 5 4 3 2 2 4 1 8 6 9 7 5 7 7 8 10 11 16 17 17 16 13 10 10 9 9 8 8 6 6 4 4 2 3 2 2 4 4
4 6 6 4 2 7 2 3 4 1 2 3 2 1 9 4 4 1 4 2 7 9 10 15 18 17 14 12 11 9 8 8 7 7 7 5 4 4 3 3 2 2 3 4
4 3 3 4 4 3 9 5 3 2 1 2 7 7 6 4 3 4 3 1 2 7 8 10 12 13 12 10 8 8 9 8 8 7 6 7 8 6 4 3 3 2 2 3
3 4 3 4 7 2 3 5 3 5 3 7 4 1 10 10 8 4 9 8 5 6 7 9 12 14 13 13 10 10 10 8 8 8 6 6 7 7 7 4 3 3 2 3
9 4 9 7 3 8 7 7 7 8 5 3 3 7 10 8 1 6 7 7 8 8 6 8 9 11 12 13 11 12 9 8 9 8 8 7 8 4 5 4 3 3 2 3
8 4 3 6 4 2 5 4 1 6 1 3 6 8 10 5 7 6 8 8 8 8 8 8 8 9 9 10 13 12 11 9 9 8 7 6 6 7 6 6 4 3 4 1
4 6 2 2 1 2 1 2 5 3 2 6 5 2 7 2 4 5 5 7 7 7 8 8 8 8 8 9 10 10 11 12 10 9 8 7 7 7 6 6 5 4 4 3
3 7 1 4 8 9 3 2 1 2 4 5 1 7 8 8 5 6 5 7 9 9 8 7 7 7 7 8 10 10 11 12 12 11 8 8 7 7 6 6 5 4 4 3
3 6 5 6 3 3 1 6 7 7 6 4 4 9 2 6 5 3 6 4 4 8 8 8 7 8 8 8 8 10 11 12 11 12 10 10 10 8 7 6 5 5 4 4
9 3 4 3 2 3 6 7 4 4 2 8 7 6 1 4 1 4 3 1 3 3 8 8 7 7 7 8 8 10 10 11 11 12 12 11 10 9 8 7 6 5 4 3
5 3 5 8 6 7 7 8 10 7 4 5 13 5 11 8 7 7 1 4 8 8 7 7 7 8 8 9 9 9 9 11 13 12 12 11 10 9 8 7 7 5 4 4
3 5 3 2 6 5 4 7 14 16 18 6 2 9 10 13 13 10 6 5 6 6 7 9 9 9 9 11 10 10 10 14 14 13 11 10 10 10 9 8 7 6 5 4
1 2 2 2 5 6 4 9 10 14 13 13 20 27 18 18 8 9 14 8 9 5 9 11 10 9 12 13 13 13 13 14 14 13 12 11 10 9 9 8 8 6 6 4
6 6 3 4 2 4 12 14 15 9 9 15 17 23 13 9 13 14 15 5 9 13 12 10 11 12 12 13 13 14 11 12 12 13 12 11 10 9 9 8 8 7 6 4
7 6 3 2 2 8 4 2 13 21 17 18 16 20 15 6 7 10 6 10 12 9 7 7 7 5 7 10 13 15 16 16 14 13 13 13 12 10 9 8 7 7 5 5
3 4 4 5 6 7 5 6 9 11 14 22 20 24 20 4 2 8 8 7 10 4 3 3 3 3 6 10 10 12 11 11 12 13 13 11 12 12 10 9 8 7 5 5
4 2 4 4 4 8 4 2 6 7 7 7 19 22 11 9 3 6 2 2 1 0 2 3 3 4 9 8 13 14 13 12 12 14 12 11 11 11 11 9 9 6 4 6
6 4 10 6 4 8 6 4 3 7 7 2 4 8 8 7 7 4 2 1 1 1 3 2 5 6 9 11 13 13 13 15 12 10 11 10 10 11 11 10 8 7 5 6
10 9 5 4 5 12 6 5 9 6 1 2 2 3 8 5 6 5 6 4 6 6 3 3 6 5 7 11 12 12 12 10 11 13 12 12 12 9 9 12 10 8 8 7
6 9 8 12 9 1 7 5 3 3 2 2 3 2 5 5 3 1 2 4 5 6 5 5 7 6 1 6 8 11 10 12 13 14 13 12 11 10 10 11 11 8 7 6
3 3 3 5 6 7 3 3 1 3 3 2 3 4 1 1 3 3 3 3 4 5 6 5 7 7 5 5 6 7 11 13 14 14 13 12 12 11 10 8 8 7 7 6
5 9 6 5 5 2 2 5 4 3 4 4 2 2 2 2 3 4 2 4 4 5 5 7 7 5 5 6 6 9 11 12 11 12 12 13 10 12 10 7 7 7 5 7
5 7 6 4 2 3 2 2 2 4 5 7 4 1 3 4 1 3 2 3 3 4 4 5 6 6 7 8 7 11 12 13 14 12 10 11 10 10 9 9 8 11 11 14
Wind_Direction
200 188 204 197 208 263 350 340 335 95 29 251 237 259 267 261 218 222 217 221 230 207 178 178 174 163 165 167 165 169 165 170 154 158 163 183 190 173 134 101 90 60 13 12
129 236 218 87 181 184 218 275 270 73 131 179 286 282 267 258 250 231 209 217 215 202 171 173 171 170 174 173 171 170 172 168 165 167 179 114 118 113 114 134 122 86 38 19
174 127 110 146 136 151 217 217 245 227 207 213 297 282 251 256 232 235 232 204 205 193 179 177 177 178 175 179 176 176 172 167 165 161 115 90 68 68 147 166 81 81 63 30
238 136 151 158 191 174 222 339 94 88 39 267 238 284 264 258 264 217 231 225 198 189 179 178 177 182 178 181 174 172 170 161 161 146 143 158 173 167 113 106 100 80 85 49
196 153 159 162 168 174 159 113 107 104 237 336 215 348 264 157 258 56 66 232 227 193 179 178 179 180 179 173 173 171 159 151 147 148 164 162 140 107 118 118 126 96 80 68
78 325 18 73 62 30 146 104 87 90 48 3 210 162 273 217 190 124 128 55 323 164 174 157 163 162 171 165 157 159 157 152 144 150 168 159 144 138 137 118 84 65 74 55
128 161 97 164 93 31 225 132 355 346 16 222 50 11 250 288 296 175 181 168 169 168 162 152 153 164 168 166 163 163 158 152 144 151 157 149 131 134 125 120 110 78 45 44
158 248 164 183 210 174 197 167 167 208 200 242 69 230 250 218 80 80 111 133 160 167 169 174 162 163 170 169 163 162 154 147 147 147 157 138 128 122 115 106 115 104 76 61
169 173 17 36 4 53 176 192 141 96 63 60 224 265 300 295 206 187 195 173 180 182 174 175 169 160 164 160 166 163 153 146 151 147 140 135 131 127 129 126 116 110 92 76
160 108 339 101 287 61 149 202 88 346 207 256 271 252 239 198 180 195 215 209 168 156 163 172 172 164 159 157 157 155 155 152 153 147 142 143 139 127 127 129 120 109 94 59
225 112 141 141 203 174 161 200 251 141 173 194 243 251 224 202 185 180 119 166 165 165 172 179 169 161 148 148 158 155 157 152 157 150 144 140 136 131 133 127 124 120 102 61
140 105 151 193 82 45 276 199 166 143 233 234 139 267 36 111 111 79 91 123 122 157 170 168 162 155 154 154 159 161 163 163 161 150 145 143 141 141 136 133 131 116 99 70
184 204 102 18 4 13 217 193 187 112 91 201 158 249 49 67 333 256 236 355 130 193 144 154 162 167 164 163 166 167 166 161 153 147 149 150 151 149 139 132 125 100 98 55
102 146 212 195 145 133 186 198 189 157 191 208 225 285 303 299 264 267 202 187 176 198 172 167 184 184 172 172 168 162 162 155 154 154 155 154 157 145 139 135 127 124 129 103
129 193 129 129 112 120 166 183 193 206 221 210 160 233 227 246 262 284 233 211 193 202 186 205 206 191 184 178 173 168 162 156 156 153 157 157 147 142 141 138 136 130 122 122
273 159 83 356 149 150 212 213 189 210 227 248 258 263 251 249 253 269 274 158 212 229 227 228 217 195 190 183 179 172 165 160 158 151 158 151 145 144 146 143 142 130 122 121
165 139 105 225 85 72 274 188 194 193 197 206 230 246 247 252 240 250 262 219 214 222 227 231 222 208 195 182 167 169 152 148 155 152 151 148 147 155 153 145 139 142 129 129
149 119 121 134 88 228 252 251 197 209 227 217 252 260 252 219 238 241 211 240 259 249 247 235 230 210 171 158 162 158 156 160 159 157 159 160 156 152 147 145 144 141 131 136
93 124 160 183 205 303 285 199 169 166 244 225 228 248 254 208 251 281 241 224 245 214 242 271 291 171 124 145 143 137 143 143 157 167 168 161 153 153 152 152 145 141 145 128
102 212 183 159 218 214 261 13 105 103 289 223 205 238 238 137 194 246 188 184 192 158 160 113 113 98 119 136 144 145 155 156 167 170 171 158 156 152 150 146 145 141 141 133
165 178 199 186 227 282 242 140 124 111 238 359 224 214 145 167 193 209 160 187 133 115 103 106 91 129 140 144 146 153 162 179 163 151 149 150 148 147 145 141 141 141 138 121
169 162 180 196 211 256 163 48 169 212 334 28 45 125 164 144 146 207 193 187 172 167 137 110 117 131 141 147 153 156 168 154 139 142 149 153 154 151 146 144 139 147 137 137
192 183 177 191 206 262 196 165 216 140 138 38 71 87 126 156 215 217 216 188 186 187 150 130 127 119 67 151 164 162 153 139 141 143 152 152 148 148 151 150 145 148 149 150
271 180 204 93 249 233 274 301 201 150 167 283 107 86 105 151 260 219 170 187 190 176 170 144 135 145 163 174 165 158 141 146 150 150 155 150 148 149 154 154 149 157 156 156
178 146 168 260 311 54 257 249 243 209 224 253 278 177 238 174 237 207 246 270 233 192 156 153 160 165 170 169 149 138 144 149 155 152 156 156 152 154 155 155 153 159 159 161
184 182 174 211 136 143 86 159 333 255 225 218 175 95 128 151 34 61 245 236 216 178 148 161 158 156 167 170 147 148 157 161 154 154 165 162 156 156 153 147 143 159 158 162